Temperature
17 17 17 17 17 18 18 18 18 18 18 18 18 18 18 18 18 18 18 18 18 18 18 18 18 18 18 18 18 18 18 18 18 18 18 18 18 18 18 18 18 18 18
18 17 17 17 17 17 17 17 18 18 18 18 18 18 18 18 18 18 18 18 17 17 17 18 18 18 18 18 18 18 18 18 18 18 18 18 18 18 18 18 18 18 18
18 17 17 17 17 17 17 17 17 17 17 17 17 17 17 17 17 17 17 17 17 17 17 17 17 18 18 18 18 18 18 18 18 18 18 18 18 17 17 17 18 18 18
18 17 17 17 17 17 17 17 17 17 17 17 17 17 17 17 17 17 17 17 17 17 17 17 17 17 17 17 17 17 17 17 17 17 17 17 17 17 17 17 17 18 18
17 17 17 17 17 17 17 17 17 17 17 17 17 17 17 17 17 17 17 17 17 17 17 17 17 17 17 17 17 17 17 17 17 17 17 17 17 17 17 17 17 17 17
17 17 17 17 17 17 17 17 17 17 17 17 17 17 17 17 17 17 17 17 17 17 17 17 17 17 17 17 17 17 17 17 17 17 17 17 17 17 17 17 17 17 17
17 17 17 17 17 17 17 17 17 17 17 17 17 17 17 17 17 17 17 17 17 17 17 17 17 17 17 17 17 17 17 17 17 17 17 17 17 17 17 17 17 17 17
17 17 17 17 17 17 17 17 17 17 17 16 16 16 17 16 16 16 16 16 16 16 17 17 17 17 17 17 17 17 16 17 17 17 17 17 17 17 17 17 17 17 16
17 17 17 17 17 17 17 17 16 16 16 16 16 16 16 16 16 16 16 16 16 16 16 16 16 16 16 16 16 16 16 16 16 16 16 16 17 17 17 17 17 16 16
17 17 17 17 17 17 16 16 16 16 16 16 16 16 16 16 16 16 16 16 16 16 16 16 16 16 16 16 16 16 16 16 16 16 16 16 16 16 16 16 16 16 16
17 17 17 17 17 16 16 16 16 16 16 16 16 16 16 16 16 16 16 16 16 16 16 16 16 16 16 16 16 16 16 16 16 16 16 16 16 16 16 16 16 16 16
17 17 17 17 17 16 16 16 16 16 16 16 16 16 16 16 16 16 16 16 16 16 16 16 16 16 16 16 16 16 16 16 16 16 16 16 16 16 16 16 16 16 16
17 17 17 17 17 17 16 16 16 16 16 16 16 16 16 16 16 16 16 16 16 16 16 16 16 16 16 16 16 16 16 16 16 16 16 16 16 16 16 16 16 16 16
17 17 17 17 17 16 16 16 16 16 16 16 16 16 16 16 16 16 16 16 16 16 16 16 15 16 16 16 16 16 16 16 16 15 15 15 15 15 15 15 15 15 15
17 17 17 17 17 16 16 16 16 16 16 16 16 16 16 16 15 15 15 15 15 15 15 15 15 15 15 15 15 15 15 15 15 15 15 15 15 15 15 15 15 15 15
17 17 17 17 17 16 16 16 16 16 16 15 15 15 15 15 15 15 15 15 15 15 15 15 15 15 15 15 15 15 15 15 15 15 15 15 15 15 15 15 15 15 15
17 17 17 17 16 16 16 16 16 16 16 15 15 15 15 15 15 15 15 15 15 15 15 15 15 15 15 15 15 15 15 15 15 15 15 15 15 15 14 14 14 14 14
17 17 17 16 16 16 16 16 16 16 16 15 15 15 15 15 15 15 15 15 15 15 15 15 15 15 15 15 15 15 15 15 15 15 15 15 15 14 14 14 14 14 14
17 17 17 16 16 16 16 16 16 15 15 15 15 15 15 15 15 15 15 15 15 15 15 15 15 15 15 15 15 15 15 15 15 15 14 14 14 14 14 14 14 14 14
17 17 17 16 16 16 16 16 15 15 15 15 15 15 15 15 15 15 15 15 15 15 15 15 15 15 15 15 14 14 14 14 14 14 14 14 14 14 14 14 14 14 14
17 17 17 16 16 16 16 16 15 15 15 15 15 15 15 15 14 14 14 14 14 14 14 14 14 14 14 14 14 14 14 14 14 14 14 14 14 14 14 14 14 14 14
17 17 17 16 16 16 16 16 15 15 15 15 14 14 14 14 14 14 14 14 14 14 14 14 14 14 14 14 14 14 13 14 14 13 13 13 13 13 13 13 13 13 13
17 17 16 16 16 16 16 15 15 15 15 14 14 14 14 14 14 14 14 14 14 14 14 13 13 13 13 13 13 13 13 13 13 13 13 13 13 13 13 13 13 13 13
16 16 16 16 16 16 15 15 15 15 15 14 14 14 14 14 14 14 14 13 13 13 13 13 13 13 13 13 13 13 13 13 12 12 13 13 13 13 13 13 12 12 13
16 16 16 16 16 15 15 15 15 15 14 14 14 14 14 14 14 13 13 13 13 13 13 13 13 13 13 13 13 12 12 12 12 12 12 12 12 12 12 12 12 12 12
16 16 16 16 15 15 15 15 15 14 14 14 14 14 13 13 13 13 13 13 13 13 13 12 12 12 12 12 12 12 12 12 12 12 12 12 12 12 12 12 12 12 12
Wind_Speed
0 1 6 7 8 9 9 9 10 10 10 10 11 11 11 12 11 11 11 11 11 12 11 11 11 10 10 10 9 10 11 11 10 10 9 9 9 9 9 9 8 7 8
4 4 6 8 8 9 9 9 10 10 10 10 11 11 11 11 11 11 11 11 12 11 11 11 11 11 10 11 10 11 11 11 11 10 9 8 8 8 8 8 8 6 8
5 5 6 8 9 9 9 9 10 10 11 11 11 11 11 11 12 12 12 12 11 11 11 11 11 11 11 11 12 12 12 11 11 10 9 7 7 8 8 8 8 7 7
6 5 6 8 9 9 9 9 10 10 11 11 12 12 11 12 12 12 12 11 11 11 11 11 11 11 11 11 11 12 12 11 11 10 8 7 7 8 8 8 8 7 7
6 6 7 8 9 8 9 9 10 11 11 12 12 12 12 11 11 11 11 11 11 10 11 11 11 11 11 11 11 12 11 11 11 10 8 7 6 8 8 8 8 8 7
5 6 7 8 8 8 8 9 10 11 11 12 12 12 12 11 11 11 11 11 11 11 10 10 10 10 10 10 11 11 11 11 10 9 8 7 6 8 9 8 8 8 8
5 5 7 8 8 8 8 10 11 11 12 12 12 12 12 12 12 11 11 11 11 11 10 10 10 10 10 10 10 11 11 11 10 8 7 7 8 9 10 9 8 8 8
6 5 7 8 8 8 10 11 12 12 12 12 11 11 11 11 11 11 10 10 10 10 10 10 9 9 9 9 10 10 10 10 9 8 7 6 8 9 9 9 8 7 8
6 5 5 6 8 9 11 12 12 11 11 11 10 10 10 10 9 9 9 9 10 9 9 9 9 9 10 9 9 10 10 10 8 6 6 6 8 9 9 9 8 7 7
5 5 5 5 6 7 8 9 10 9 9 9 9 8 8 7 7 7 7 8 8 8 8 8 9 9 9 9 9 9 10 9 7 6 5 6 8 9 9 9 8 8 8
5 4 4 3 4 5 6 7 7 7 7 6 5 7 6 5 4 4 5 6 6 7 7 8 7 8 8 8 9 10 9 7 7 6 5 7 9 9 9 8 8 8 8
5 4 3 3 3 4 4 5 4 4 5 5 4 4 4 4 3 3 3 4 5 6 6 7 7 7 6 6 7 8 7 7 6 4 5 8 8 9 9 9 8 8 8
6 5 4 3 4 4 4 4 4 4 4 4 4 3 3 4 3 4 3 3 4 5 5 5 6 6 6 5 5 5 5 5 5 4 5 7 8 9 8 8 8 8 7
6 5 5 4 4 4 4 3 4 3 3 3 3 3 3 3 3 2 2 3 3 3 3 4 4 5 5 5 5 5 5 4 4 4 5 7 8 8 8 7 8 7 7
6 6 5 5 5 4 4 3 4 3 3 3 3 4 4 3 2 2 2 2 3 3 3 3 3 4 4 5 5 5 5 5 5 4 4 6 7 7 7 7 7 7 7
6 6 5 5 5 5 4 3 3 3 4 4 4 4 5 4 3 3 2 2 3 4 4 4 3 3 3 4 4 4 4 4 5 5 4 5 5 6 6 6 6 6 7
6 7 6 6 5 5 5 4 4 4 5 4 4 6 6 5 4 4 3 3 3 4 5 5 5 4 4 4 4 3 3 4 4 4 4 4 4 5 6 6 6 6 6
7 7 7 7 6 5 4 4 4 4 5 4 5 6 7 7 7 5 4 3 4 5 4 4 4 4 4 4 3 2 2 2 4 4 4 5 4 4 5 6 6 6 7
7 7 7 6 7 5 4 4 4 5 4 4 5 6 6 7 8 6 4 3 5 4 3 3 4 3 3 3 2 3 3 3 3 4 4 4 4 4 4 5 6 6 6
7 7 7 6 6 6 4 4 4 4 3 4 4 5 6 7 7 6 4 4 5 4 4 3 3 3 3 2 3 4 3 3 3 3 3 3 4 4 4 4 4 4 5
6 7 7 7 6 5 4 4 3 2 1 2 3 5 6 6 7 6 4 4 4 4 3 3 3 4 3 3 3 3 4 4 4 3 3 3 3 3 4 4 4 4 4
7 7 7 7 7 5 4 4 3 3 2 1 2 4 6 7 6 6 5 3 3 3 4 4 3 2 2 3 2 2 3 4 4 3 3 3 3 2 3 4 5 4 3
6 7 7 6 6 5 5 4 4 3 3 2 2 2 3 5 6 5 5 4 3 3 3 2 3 3 1 2 2 3 2 1 2 3 3 3 3 2 2 3 4 4 4
6 5 6 6 6 5 5 5 6 4 3 2 2 1 2 4 4 5 5 4 3 2 2 2 2 2 2 1 1 1 1 3 2 1 3 3 3 2 2 2 3 3 3
6 6 6 6 5 4 5 5 6 4 3 2 2 2 2 2 3 4 4 4 3 2 2 2 2 2 2 1 1 1 1 1 1 2 1 3 3 2 2 1 2 2 2
6 6 6 7 5 5 5 5 4 5 4 4 2 2 1 1 1 2 4 3 3 2 2 2 2 3 2 2 2 2 1 1 0 1 1 2 2 2 2 1 1 1 1
Wind_Direction
150 128 107 95 95 91 88 83 80 76 76 76 78 81 81 81 80 81 80 81 81 79 77 76 76 72 73 79 96 109 117 115 110 107 106 102 101 102 102 99 94 94 99
155 127 109 97 99 96 92 89 85 81 80 79 81 82 85 84 83 83 81 81 81 79 76 76 74 71 72 75 90 106 110 108 105 103 102 101 100 101 102 101 99 102 103
129 121 112 102 102 99 94 90 86 84 84 84 85 83 84 85 86 85 83 82 82 81 78 77 77 73 73 75 83 94 98 99 101 100 96 91 97 101 103 100 99 101 101
127 121 114 108 103 100 97 92 90 88 88 87 87 85 84 84 85 85 83 82 82 83 81 79 77 75 73 76 81 89 94 95 98 97 88 84 92 100 99 97 97 101 102
119 117 117 112 108 104 101 96 94 91 89 89 89 85 83 84 86 86 83 82 81 81 81 80 77 76 76 77 81 89 92 92 96 89 84 83 87 97 98 96 92 91 95
114 117 122 115 109 106 105 103 98 94 91 90 88 85 82 82 85 87 84 83 82 82 82 82 80 78 78 77 78 86 88 87 89 84 80 81 85 90 91 90 86 84 87
120 120 123 117 111 104 104 108 104 99 95 92 89 87 84 84 85 87 85 83 83 83 83 82 83 83 80 79 81 84 85 86 88 84 79 79 89 90 85 83 83 82 84
130 124 120 115 111 102 102 107 105 100 96 95 93 89 86 85 85 86 85 84 83 83 81 79 81 83 81 78 80 84 85 88 89 87 81 82 90 90 85 81 77 76 77
123 115 106 112 112 104 99 104 104 100 98 96 95 93 91 88 87 86 84 84 82 82 81 78 77 78 79 78 80 79 82 87 90 92 90 86 90 88 84 79 75 73 71
112 111 106 108 110 106 103 104 106 106 104 100 97 94 96 94 91 87 84 85 85 83 81 79 76 74 74 74 76 76 82 86 86 88 91 96 94 90 85 80 77 75 73
110 111 119 115 116 120 118 107 103 103 100 99 95 88 82 79 78 76 80 85 86 84 80 76 75 74 70 68 73 73 75 82 83 84 90 98 97 94 90 84 81 78 77
136 139 139 138 128 119 121 109 101 92 85 88 91 84 80 82 80 78 74 72 77 80 73 67 66 69 67 65 70 69 74 80 81 82 90 96 97 99 93 87 85 81 80
154 149 148 142 126 114 104 112 99 88 82 77 75 88 89 73 67 61 56 50 55 65 62 55 53 54 60 69 75 76 78 84 83 82 91 97 98 97 94 86 83 79 77
146 151 150 144 125 120 115 108 107 100 92 83 71 80 91 77 70 72 60 47 52 55 54 56 59 56 60 68 81 80 78 87 88 84 90 95 98 93 89 87 81 76 74
147 151 152 143 136 125 115 112 107 109 102 101 85 82 96 90 85 94 79 61 59 61 69 74 72 66 64 68 78 82 76 81 86 81 83 89 89 90 87 83 80 73 70
144 144 146 142 138 129 125 120 116 113 102 89 80 79 86 95 97 105 88 77 71 75 83 83 78 79 76 79 70 78 83 86 86 81 82 83 82 81 79 79 77 73 69
153 143 141 136 131 132 128 120 111 106 96 79 76 76 79 84 91 95 93 81 71 74 78 76 66 69 70 65 59 65 82 85 89 84 81 76 71 69 71 73 70 71 69
149 142 144 135 128 126 125 113 104 95 91 81 81 76 72 78 84 83 83 78 78 78 77 78 65 61 56 52 52 49 52 69 76 80 78 72 65 58 59 61 63 67 68
155 145 140 132 131 131 123 109 102 95 90 81 80 77 75 78 83 87 81 73 77 75 65 74 61 66 62 44 44 52 47 51 60 77 72 69 63 61 62 54 59 62 65
150 143 141 130 130 129 119 101 87 79 76 73 74 78 82 77 83 86 79 67 72 74 62 61 64 54 64 54 60 46 29 36 50 59 64 66 56 56 61 58 61 60 62
145 145 147 141 148 142 131 122 112 111 102 71 69 78 83 83 85 83 74 67 70 75 72 70 74 59 40 47 61 29 15 29 46 41 48 57 50 50 61 64 61 63 56
162 162 158 156 157 154 152 148 144 140 127 112 74 69 78 87 88 88 81 80 75 76 61 60 71 70 42 47 90 79 20 360 6 22 29 45 37 56 56 55 59 59 49
160 169 165 166 159 155 148 127 106 83 66 57 62 63 61 91 95 92 88 83 81 85 81 73 79 92 79 14 62 115 123 228 313 341 6 21 21 29 30 56 58 58 59
168 161 151 154 150 149 144 139 138 142 149 177 168 130 91 91 99 100 95 92 91 88 82 68 80 83 102 59 9 36 125 157 147 317 330 352 2 20 23 54 62 52 54
158 152 144 132 129 132 135 147 148 144 156 145 123 104 92 78 84 92 97 93 92 86 79 69 66 68 86 104 89 52 56 53 90 140 282 323 344 347 5 34 72 64 54
142 140 135 128 128 133 133 138 145 147 140 128 127 130 119 82 66 73 91 87 90 88 86 89 85 80 82 90 86 83 103 103 155 142 204 281 305 312 342 2 25 35 46
Height
1522 1521 1521 1520 1519 1519 1518 1518 1517 1516 1516 1515 1514 1514 1513 1513 1513 1512 1512 1512 1512 1511 1511 1510 1509 1507 1503 1498 1495 1497 1503 1508 1511 1512 1514 1515 1516 1516 1516 1517 1517 1517 1516
1521 1521 1521 1520 1520 1519 1519 1518 1518 1517 1516 1516 1515 1515 1514 1514 1514 1513 1513 1513 1513 1512 1512 1511 1510 1508 1505 1500 1498 1499 1504 1508 1511 1513 1514 1515 1516 1517 1517 1517 1517 1517 1517
1521 1521 1521 1520 1520 1519 1519 1519 1518 1517 1517 1517 1516 1516 1515 1515 1515 1515 1514 1514 1514 1514 1513 1512 1511 1510 1508 1505 1504 1505 1507 1510 1512 1514 1515 1516 1516 1517 1517 1517 1517 1517 1517
1522 1522 1521 1521 1520 1520 1519 1519 1518 1518 1518 1518 1517 1517 1516 1516 1516 1516 1516 1515 1515 1515 1514 1513 1512 1512 1511 1509 1508 1509 1510 1512 1514 1515 1516 1516 1517 1518 1518 1518 1518 1518 1518
1522 1522 1522 1521 1520 1520 1519 1519 1519 1519 1519 1518 1518 1518 1518 1517 1517 1517 1517 1517 1516 1516 1515 1515 1514 1514 1513 1512 1512 1512 1513 1514 1515 1516 1517 1517 1518 1518 1518 1518 1518 1518 1518
1522 1522 1522 1522 1521 1520 1518 1518 1518 1519 1519 1519 1519 1519 1519 1518 1518 1518 1518 1518 1517 1517 1517 1516 1516 1515 1515 1515 1515 1515 1515 1516 1517 1517 1518 1518 1518 1519 1519 1519 1518 1518 1518
1523 1523 1523 1522 1521 1519 1516 1515 1517 1519 1520 1520 1520 1520 1520 1520 1520 1520 1519 1519 1519 1518 1518 1517 1517 1517 1517 1517 1517 1517 1517 1518 1518 1519 1519 1519 1519 1519 1519 1519 1519 1518 1518
1523 1524 1523 1523 1522 1519 1516 1515 1518 1520 1521 1522 1522 1522 1521 1521 1521 1521 1521 1520 1520 1519 1519 1519 1519 1519 1518 1518 1518 1519 1519 1519 1519 1520 1520 1520 1520 1519 1519 1519 1519 1519 1519
1524 1524 1524 1524 1523 1521 1520 1519 1521 1522 1523 1523 1523 1523 1523 1523 1522 1522 1522 1522 1521 1521 1521 1520 1520 1520 1520 1520 1520 1520 1520 1520 1520 1521 1521 1520 1520 1520 1520 1520 1519 1519 1519
1525 1525 1525 1525 1524 1523 1523 1523 1523 1524 1524 1524 1524 1524 1524 1524 1524 1524 1523 1523 1523 1522 1522 1522 1521 1521 1521 1521 1521 1521 1521 1522 1522 1522 1521 1521 1521 1520 1520 1520 1519 1519 1519
1526 1526 1526 1526 1526 1525 1525 1525 1525 1525 1526 1526 1526 1525 1525 1525 1525 1525 1525 1525 1524 1524 1524 1523 1523 1523 1522 1522 1522 1522 1522 1522 1522 1522 1522 1522 1521 1521 1521 1520 1520 1520 1519
1526 1526 1527 1527 1527 1527 1527 1527 1527 1527 1527 1527 1527 1526 1526 1526 1526 1526 1526 1526 1525 1525 1525 1524 1524 1524 1524 1524 1523 1523 1523 1523 1523 1523 1523 1522 1522 1522 1521 1521 1520 1520 1519
1526 1527 1527 1528 1528 1528 1528 1528 1528 1528 1528 1528 1527 1527 1527 1527 1526 1526 1527 1527 1526 1526 1526 1525 1525 1525 1525 1524 1524 1524 1524 1524 1524 1524 1524 1523 1523 1522 1522 1522 1521 1520 1520
1526 1527 1528 1528 1528 1528 1529 1529 1529 1528 1528 1528 1528 1528 1528 1527 1527 1527 1527 1527 1527 1527 1527 1526 1526 1526 1526 1525 1525 1525 1525 1525 1525 1524 1524 1524 1523 1523 1522 1522 1521 1521 1520
1526 1527 1527 1528 1528 1529 1529 1529 1529 1529 1529 1529 1529 1529 1528 1527 1527 1527 1527 1527 1527 1527 1527 1527 1527 1527 1526 1526 1526 1526 1526 1526 1526 1525 1525 1525 1524 1524 1523 1523 1522 1521 1520
1526 1526 1527 1528 1529 1529 1529 1530 1530 1530 1530 1530 1529 1529 1528 1528 1527 1526 1527 1527 1528 1528 1528 1528 1527 1527 1527 1527 1527 1527 1527 1527 1527 1526 1526 1525 1525 1524 1524 1523 1523 1522 1521
1525 1526 1527 1528 1529 1529 1529 1530 1530 1530 1530 1530 1530 1529 1529 1528 1527 1527 1527 1528 1528 1528 1528 1528 1528 1528 1528 1528 1528 1528 1528 1528 1527 1527 1527 1526 1526 1525 1525 1524 1523 1522 1522
1525 1525 1527 1527 1528 1529 1529 1530 1530 1530 1530 1530 1530 1530 1530 1529 1528 1528 1528 1528 1528 1529 1529 1529 1528 1528 1528 1528 1528 1528 1528 1528 1528 1527 1527 1527 1526 1526 1525 1524 1524 1523 1522
1524 1525 1526 1527 1528 1529 1529 1530 1530 1531 1531 1531 1531 1530 1530 1530 1529 1528 1528 1528 1529 1529 1529 1529 1529 1528 1528 1528 1528 1529 1529 1529 1529 1528 1528 1527 1527 1526 1525 1525 1524 1524 1523
1523 1524 1525 1526 1528 1528 1529 1530 1530 1531 1531 1531 1531 1531 1531 1530 1529 1529 1529 1529 1529 1529 1529 1529 1529 1529 1529 1529 1529 1529 1529 1529 1529 1528 1528 1528 1527 1527 1526 1525 1525 1524 1524
1522 1524 1524 1526 1527 1528 1528 1529 1530 1530 1531 1531 1531 1531 1531 1531 1530 1530 1529 1529 1529 1529 1529 1529 1529 1528 1529 1529 1529 1529 1529 1529 1529 1529 1528 1528 1527 1527 1526 1526 1525 1525 1524
1521 1522 1524 1525 1526 1527 1528 1529 1529 1530 1531 1531 1531 1531 1531 1531 1531 1530 1530 1530 1529 1529 1529 1529 1529 1528 1528 1528 1528 1528 1529 1530 1529 1529 1529 1528 1527 1527 1526 1526 1525 1524 1524
1520 1521 1523 1524 1525 1526 1527 1528 1529 1530 1530 1531 1531 1531 1531 1531 1531 1530 1530 1530 1529 1529 1529 1529 1529 1528 1528 1528 1528 1529 1528 1528 1528 1529 1528 1528 1527 1527 1526 1525 1525 1524 1524
1518 1520 1521 1522 1524 1525 1526 1527 1528 1528 1529 1529 1530 1530 1530 1530 1530 1530 1530 1529 1529 1529 1529 1529 1528 1528 1528 1528 1528 1528 1529 1528 1528 1527 1527 1527 1527 1526 1525 1525 1524 1524 1523
1517 1518 1520 1521 1523 1524 1525 1526 1527 1527 1528 1529 1529 1529 1529 1530 1530 1529 1529 1529 1528 1528 1528 1528 1528 1527 1527 1527 1527 1527 1527 1527 1527 1526 1525 1525 1525 1525 1525 1524 1524 1523 1523
1515 1517 1518 1520 1521 1522 1523 1524 1525 1526 1526 1527 1528 1528 1528 1528 1528 1528 1528 1528 1527 1527 1527 1527 1526 1526 1526 1526 1526 1526 1526 1525 1525 1525 1524 1524 1523 1523 1523 1523 1523 1522 1522